Location: Maynard F. Jordan Observatory
(44.9000°N, 68.6700°W)
Time: 20:13:12
(UTC-04:00)

Cosmos 2297 Rocket - Visible Passes

Search period start: 16 October 2017 00:00
Search period end: 26 October 2017 00:00
Orbit: 840 x 843 km, 71.0° (Epoch: 16 October)

Date Brightness Start Highest point End Pass type
(mag) Time Alt. Az. Time Alt. Az. Time Alt. Az.
16 Oct 4.7 05:03:48 10° N 05:07:29 17° NE 05:11:08 10° E visible
17 Oct 4.8 04:48:46 10° N 04:52:20 17° NE 04:55:51 10° E visible
18 Oct 4.8 04:33:45 10° N 04:37:10 16° NE 04:40:35 10° E visible
18 Oct 2.4 06:16:31 10° NNW 06:22:12 78° ENE 06:27:51 10° SSE visible
19 Oct 4.8 04:18:45 10° N 04:22:01 15° NE 04:25:17 10° ENE visible
19 Oct 2.5 06:01:25 10° NNW 06:07:06 74° ENE 06:12:44 10° SSE visible
20 Oct 4.9 04:03:44 10° N 04:06:52 15° NE 04:09:59 10° ENE visible
20 Oct 2.5 05:46:19 10° NNW 05:51:59 71° ENE 05:57:37 10° SSE visible
20 Oct 4.4 20:39:11 10° SSW 20:39:56 14° SSW 20:39:56 14° SSW visible
21 Oct 4.9 03:48:44 10° N 03:51:42 14° NE 03:54:40 10° ENE visible
21 Oct 2.6 05:31:14 10° NNW 05:36:53 67° ENE 05:42:29 10° SE visible
21 Oct 3.9 18:43:41 10° SE 18:45:06 13° ESE 18:45:06 13° ESE visible
21 Oct 3.3 20:24:05 10° SSW 20:27:02 33° SSW 20:27:02 33° SSW visible
22 Oct 4.9 03:33:44 10° N 03:36:32 14° NE 03:39:20 10° ENE visible
22 Oct 2.6 05:16:08 10° NNW 05:21:47 64° ENE 05:27:22 10° SE visible
22 Oct 3.7 18:28:53 10° SE 18:31:28 13° E 18:32:09 13° E visible
22 Oct 2.2 20:08:59 10° SSW 20:14:05 74° SSW 20:14:05 74° SSW visible
22 Oct 5.0 21:55:41 10° W 21:56:00 11° W 21:56:00 11° W visible
23 Oct 5.0 03:18:45 10° N 03:21:22 13° NE 03:23:59 10° ENE visible
23 Oct 2.7 05:01:03 10° NNW 05:06:40 61° ENE 05:12:14 10° SE visible
23 Oct 3.8 18:14:08 10° ESE 18:16:25 13° E 18:18:42 10° ENE visible
23 Oct 2.0 19:53:53 10° SSW 19:59:32 86° ESE 20:00:57 53° NNE visible
23 Oct 4.6 21:40:25 10° W 21:42:52 17° WNW 21:42:52 17° WNW visible
24 Oct 5.0 03:03:47 10° NNE 03:06:13 13° NE 03:08:38 10° ENE visible
24 Oct 2.7 04:45:57 10° NNW 04:51:33 58° ENE 04:57:06 10° SE visible
24 Oct 3.3 06:30:52 10° NW 06:35:08 22° W 06:39:23 10° SSW visible
24 Oct 3.9 17:59:25 10° ESE 18:01:21 12° E 18:03:17 10° ENE visible
24 Oct 2.0 19:38:47 10° SSW 19:44:26 82° ESE 19:47:36 28° NNE visible
24 Oct 4.4 21:25:10 10° W 21:29:12 20° NW 21:29:29 20° NW visible
25 Oct 5.0 02:49:47 11° NNE 02:51:03 12° NE 02:53:15 10° ENE visible
25 Oct 2.8 04:31:41 14° NNW 04:36:27 55° ENE 04:41:58 10° SE visible
25 Oct 3.3 06:15:41 10° NW 06:20:04 24° WSW 06:24:25 10° SSW visible
25 Oct 2.1 19:23:42 10° SSW 19:29:21 78° ESE 19:33:57 16° NNE visible
25 Oct 4.4 21:09:55 10° W 21:14:03 20° NW 21:15:50 18° NNW visible
